| time (UTC) | temp F | wind direction | speed MPH | gust MPH | rain 1hr in | rain 24hr in | rain mn in | humidity % | barometer mb |
| 20260906064503 | 42 | 52 | 0.0 | 2.0 | 0.00 | 0.03 | 0.03 | 96 | 1019.9 |
| 20260906063604 | 42 | 50 | 0.0 | 2.0 | 0.00 | 0.03 | 0.03 | 95 | 1019.9 |
| 20260906062703 | 42 | 36 | 0.0 | 1.0 | 0.00 | 0.03 | 0.03 | 95 | 1019.9 |
| 20260906062018 | 43 | 36 | 0.0 | 1.0 | 0.00 | 0.03 | 0.03 | 95 | 1019.8 |
| 20260906061117 | 43 | 15 | 0.0 | 1.0 | 0.00 | 0.03 | 0.03 | 95 | 1020.4 |
| 20260906060218 | 43 | 22 | 0.0 | 2.0 | 0.00 | 0.03 | 0.03 | 96 | 1020.1 |
| 20260906055403 | 43 | 27 | 1.0 | 3.0 | 0.00 | 0.03 | 0.03 | 95 | 1020.2 |
| 20260906054503 | 43 | 49 | 0.0 | 2.0 | 0.00 | 0.03 | 0.03 | 95 | 1020.2 |
| 20260906053604 | 43 | 22 | 0.0 | 2.0 | 0.00 | 0.03 | 0.03 | 95 | 1020.1 |
| 20260906052703 | 43 | 19 | 0.0 | 2.0 | 0.00 | 0.03 | 0.03 | 94 | 1020.3 |
| 20260906051803 | 43 | 84 | 0.0 | 3.0 | 0.00 | 0.03 | 0.03 | 94 | 1019.9 |
| 20260906050903 | 43 | 74 | 0.0 | 2.0 | 0.00 | 0.03 | 0.03 | 94 | 1019.8 |
| 20260906050218 | 43 | 47 | 0.0 | 1.0 | 0.00 | 0.03 | 0.03 | 94 | 1020.3 |
| 20260906045403 | 43 | 24 | 0.0 | 2.0 | 0.00 | 0.03 | 0.03 | 94 | 1019.7 |
| 20260906044503 | 44 | 59 | 0.0 | 2.0 | 0.00 | 0.03 | 0.03 | 93 | 1019.9 |
| 20260906043818 | 44 | 5 | 0.0 | 2.0 | 0.00 | 0.03 | 0.03 | 92 | 1020.1 |
| 20260906042705 | 44 | 19 | 1.0 | 2.0 | 0.00 | 0.03 | 0.03 | 93 | 1019.8 |
| 20260906042019 | 44 | 23 | 1.0 | 2.0 | 0.00 | 0.03 | 0.03 | 92 | 1019.8 |
| 20260906040903 | 44 | 10 | 1.0 | 2.0 | 0.00 | 0.03 | 0.03 | 92 | 1019.9 |
| 20260906040004 | 44 | 10 | 1.0 | 2.0 | 0.00 | 0.03 | 0.03 | 92 | 1019.9 |
| 20260906035403 | 45 | 11 | 1.0 | 2.0 | 0.00 | 0.03 | 0.03 | 91 | 1019.8 |
| 20260906034719 | 45 | 12 | 1.0 | 2.0 | 0.00 | 0.03 | 0.03 | 92 | 1019.8 |
| 20260906033603 | 45 | 7 | 1.0 | 2.0 | 0.00 | 0.03 | 0.03 | 91 | 1020.1 |
| 20260906032703 | 45 | 3 | 1.0 | 2.0 | 0.00 | 0.03 | 0.03 | 90 | 1019.8 |
| 20260906031803 | 46 | 3 | 2.0 | 3.0 | 0.00 | 0.03 | 0.03 | 90 | 1019.6 |
| 20260906031118 | 46 | 3 | 1.0 | 3.0 | 0.00 | 0.03 | 0.03 | 90 | 1019.6 |
| 20260906030003 | 47 | 8 | 1.0 | 2.0 | 0.00 | 0.03 | 0.03 | 90 | 1019.7 |
| 20260906025617 | 47 | 8 | 1.0 | 2.0 | 0.00 | 0.04 | 0.03 | 90 | 1019.4 |
| 20260906024503 | 47 | 355 | 0.0 | 1.0 | 0.00 | 0.04 | 0.03 | 88 | 1019.4 |
| 20260906023603 | 48 | 6 | 0.0 | 2.0 | 0.00 | 0.04 | 0.03 | 88 | 1019.5 |
| 20260906022703 | 49 | 11 | 1.0 | 2.0 | 0.00 | 0.04 | 0.03 | 87 | 1019.5 |
| 20260906021803 | 50 | 10 | 0.0 | 1.0 | 0.00 | 0.04 | 0.03 | 87 | 1019.7 |
| 20260906020903 | 50 | 11 | 1.0 | 2.0 | 0.00 | 0.04 | 0.03 | 85 | 1019.2 |
| 20260906020003 | 51 | 14 | 0.0 | 2.0 | 0.00 | 0.04 | 0.03 | 83 | 1019.4 |
| 20260906015403 | 51 | 18 | 0.0 | 2.0 | 0.00 | 0.04 | 0.03 | 82 | 1019.5 |
| 20260906014503 | 52 | 0 | 0.0 | 0.0 | 0.00 | 0.05 | 0.03 | 80 | 1019.4 |
| 20260906013603 | 53 | 75 | 0.0 | 1.0 | 0.00 | 0.05 | 0.03 | 77 | 1019.4 |
| 20260906012703 | 53 | 151 | 0.0 | 1.0 | 0.00 | 0.06 | 0.03 | 76 | 1019.0 |
| 20260906011803 | 53 | 155 | 0.0 | 2.0 | 0.00 | 0.06 | 0.03 | 74 | 1019.5 |
| 20260906010903 | 53 | 16 | 0.0 | 4.0 | 0.00 | 0.07 | 0.03 | 75 | 1019.4 |
| 20260906010003 | 53 | 18 | 0.0 | 3.0 | 0.00 | 0.08 | 0.03 | 77 | 1019.5 |
| 20260906005403 | 52 | 70 | 0.0 | 1.0 | 0.00 | 0.08 | 0.03 | 77 | 1019.5 |
| 20260906004503 | 53 | 0 | 0.0 | 0.0 | 0.00 | 0.09 | 0.03 | 78 | 1019.2 |
| 20260906003603 | 53 | 209 | 0.0 | 1.0 | 0.00 | 0.09 | 0.03 | 77 | 1019.2 |
| 20260906002703 | 53 | 251 | 0.0 | 1.0 | 0.00 | 0.11 | 0.03 | 76 | 1019.4 |
| 20260906001803 | 53 | 226 | 0.0 | 1.0 | 0.00 | 0.12 | 0.03 | 76 | 1019.4 |
| 20260906001117 | 54 | 228 | 0.0 | 2.0 | 0.00 | 0.13 | 0.03 | 77 | 1019.2 |
| 20260906000003 | 54 | 278 | 0.0 | 2.0 | 0.00 | 0.15 | 0.03 | 77 | 1019.2 |
| 20260905235403 | 54 | 262 | 0.0 | 3.0 | 0.00 | 0.16 | 0.03 | 77 | 1019.2 |
| 20260905234503 | 54 | 178 | 1.0 | 4.0 | 0.00 | 0.16 | 0.03 | 76 | 1019.4 |
| 20260905233603 | 54 | 213 | 1.0 | 4.0 | 0.00 | 0.16 | 0.03 | 77 | 1019.6 |
| 20260905232703 | 54 | 226 | 1.0 | 4.0 | 0.00 | 0.16 | 0.03 | 78 | 1019.5 |
| 20260905231803 | 54 | 240 | 1.0 | 4.0 | 0.00 | 0.16 | 0.03 | 78 | 1019.5 |
| 20260905230903 | 54 | 233 | 1.0 | 6.0 | 0.00 | 0.16 | 0.03 | 82 | 1019.4 |
| 20260905230004 | 53 | 270 | 1.0 | 4.0 | 0.00 | 0.16 | 0.03 | 78 | 1019.6 |
| 20260905225403 | 53 | 271 | 1.0 | 4.0 | 0.00 | 0.16 | 0.03 | 80 | 1019.5 |
| 20260905224717 | 52 | 235 | 0.0 | 3.0 | 0.00 | 0.16 | 0.03 | 82 | 1019.5 |
| 20260905223603 | 53 | 230 | 1.0 | 5.0 | 0.00 | 0.16 | 0.03 | 83 | 1019.6 |
| 20260905222703 | 53 | 183 | 2.0 | 6.0 | 0.02 | 0.16 | 0.03 | 85 | 1019.9 |
| 20260905221803 | 53 | 223 | 1.0 | 7.0 | 0.02 | 0.16 | 0.03 | 86 | 1019.4 |
| 20260905220903 | 54 | 252 | 0.0 | 2.0 | 0.02 | 0.16 | 0.03 | 87 | 1019.7 |
| 20260905220003 | 54 | 281 | 0.0 | 3.0 | 0.02 | 0.16 | 0.03 | 87 | 1019.4 |
| 20260905215617 | 54 | 329 | 0.0 | 2.0 | 0.02 | 0.16 | 0.03 | 87 | 1019.5 |
| 20260905214503 | 53 | 358 | 0.0 | 2.0 | 0.02 | 0.16 | 0.03 | 85 | 1019.4 |
| 20260905213603 | 55 | 89 | 1.0 | 4.0 | 0.02 | 0.15 | 0.03 | 76 | 1019.3 |
| 20260905212703 | 56 | 131 | 2.0 | 5.0 | 0.00 | 0.13 | 0.01 | 69 | 1019.3 |
| 20260905212017 | 57 | 101 | 1.0 | 5.0 | 0.00 | 0.13 | 0.01 | 68 | 1019.2 |
| 20260905210903 | 58 | 146 | 2.0 | 5.0 | 0.00 | 0.14 | 0.01 | 66 | 1019.5 |
| 20260905210003 | 60 | 166 | 2.0 | 6.0 | 0.00 | 0.14 | 0.01 | 67 | 1019.3 |
| 20260905205403 | 60 | 165 | 4.0 | 8.0 | 0.00 | 0.14 | 0.01 | 64 | 1019.3 |
| 20260905204718 | 60 | 166 | 4.0 | 9.0 | 0.00 | 0.14 | 0.01 | 69 | 1019.4 |
| 20260905203817 | 59 | 168 | 3.0 | 8.0 | 0.00 | 0.14 | 0.01 | 64 | 1019.4 |
| 20260905202703 | 58 | 169 | 3.0 | 7.0 | 0.00 | 0.14 | 0.01 | 72 | 1019.6 |
| 20260905201803 | 58 | 171 | 3.0 | 7.0 | 0.00 | 0.14 | 0.01 | 68 | 1019.4 |
| 20260905200904 | 57 | 229 | 1.0 | 6.0 | 0.00 | 0.14 | 0.01 | 76 | 1019.6 |
| 20260905200005 | 56 | 263 | 1.0 | 4.0 | 0.00 | 0.15 | 0.01 | 79 | 1019.4 |
| 20260905195403 | 56 | 238 | 1.0 | 5.0 | 0.00 | 0.15 | 0.01 | 80 | 1019.6 |
| 20260905194718 | 56 | 132 | 1.0 | 5.0 | 0.00 | 0.15 | 0.01 | 78 | 1019.4 |
| 20260905193603 | 55 | 199 | 1.0 | 4.0 | 0.00 | 0.15 | 0.01 | 75 | 1019.6 |
| 20260905192703 | 55 | 314 | 1.0 | 3.0 | 0.00 | 0.15 | 0.01 | 78 | 1019.8 |
| 20260905191803 | 56 | 27 | 1.0 | 4.0 | 0.00 | 0.15 | 0.01 | 76 | 1020.1 |
| 20260905190903 | 56 | 141 | 2.0 | 5.0 | 0.00 | 0.15 | 0.01 | 82 | 1020.2 |
| 20260905190218 | 56 | 167 | 3.0 | 6.0 | 0.00 | 0.15 | 0.01 | 75 | 1019.9 |
| 20260905185403 | 55 | 170 | 4.0 | 8.0 | 0.00 | 0.15 | 0.01 | 79 | 1020.1 |
| 20260905184503 | 54 | 180 | 2.0 | 8.0 | 0.00 | 0.15 | 0.01 | 90 | 1020.3 |
| 20260905183603 | 53 | 181 | 2.0 | 6.0 | 0.00 | 0.15 | 0.01 | 89 | 1020.2 |
| 20260905182703 | 52 | 174 | 2.0 | 5.0 | 0.00 | 0.15 | 0.01 | 90 | 1020.1 |
| 20260905181803 | 51 | 136 | 2.0 | 6.0 | 0.00 | 0.15 | 0.01 | 89 | 1020.3 |
| 20260905181116 | 51 | 125 | 1.0 | 4.0 | 0.00 | 0.15 | 0.01 | 90 | 1020.5 |
| 20260905180218 | 50 | 92 | 1.0 | 3.0 | 0.00 | 0.15 | 0.01 | 92 | 1020.2 |
| 20260905175404 | 50 | 41 | 1.0 | 5.0 | 0.00 | 0.15 | 0.01 | 94 | 1020.6 |
| 20260905174503 | 49 | 188 | 1.0 | 3.0 | 0.00 | 0.15 | 0.01 | 96 | 1020.5 |
| 20260905173603 | 49 | 171 | 0.0 | 3.0 | 0.00 | 0.15 | 0.01 | 96 | 1020.4 |
| 20260905172703 | 49 | 133 | 0.0 | 2.0 | 0.00 | 0.15 | 0.01 | 97 | 1020.6 |
| 20260905171803 | 49 | 179 | 1.0 | 3.0 | 0.00 | 0.15 | 0.01 | 97 | 1020.4 |
| 20260905170903 | 50 | 154 | 1.0 | 5.0 | 0.00 | 0.15 | 0.01 | 97 | 1020.5 |
| 20260905170003 | 49 | 157 | 1.0 | 5.0 | 0.00 | 0.15 | 0.01 | 97 | 1020.4 |
| 20260905165403 | 49 | 159 | 2.0 | 5.0 | 0.00 | 0.15 | 0.01 | 98 | 1020.6 |
| 20260905164503 | 48 | 144 | 2.0 | 5.0 | 0.00 | 0.15 | 0.01 | 98 | 1020.3 |
| 20260905163603 | 47 | 162 | 2.0 | 5.0 | 0.00 | 0.15 | 0.01 | 99 | 1020.4 |
| 20260905162917 | 46 | 165 | 2.0 | 4.0 | 0.00 | 0.15 | 0.01 | 99 | 1020.4 |
| 20260905161803 | 44 | 157 | 1.0 | 4.0 | 0.00 | 0.15 | 0.01 | 99 | 1020.5 |
| 20260905160903 | 44 | 139 | 1.0 | 4.0 | 0.00 | 0.15 | 0.01 | 99 | 1020.4 |
| 20260905160217 | 44 | 123 | 1.0 | 3.0 | 0.00 | 0.15 | 0.01 | 99 | 1021.0 |
| 20260905155403 | 43 | 132 | 1.0 | 4.0 | 0.00 | 0.15 | 0.01 | 99 | 1020.7 |
| 20260905154503 | 43 | 154 | 1.0 | 2.0 | 0.00 | 0.15 | 0.01 | 99 | 1020.6 |
| 20260905153604 | 43 | 146 | 1.0 | 3.0 | 0.00 | 0.15 | 0.01 | 99 | 1020.5 |
| 20260905152917 | 42 | 137 | 1.0 | 4.0 | 0.00 | 0.15 | 0.01 | 99 | 1020.4 |
| 20260905151803 | 42 | 139 | 1.0 | 3.0 | 0.00 | 0.15 | 0.01 | 99 | 1020.6 |
| 20260905150903 | 42 | 114 | 2.0 | 6.0 | 0.00 | 0.15 | 0.01 | 99 | 1020.2 |
| 20260905150217 | 42 | 114 | 2.0 | 6.0 | 0.00 | 0.15 | 0.01 | 99 | 1020.3 |
| 20260905145404 | 42 | 126 | 2.0 | 4.0 | 0.00 | 0.15 | 0.01 | 99 | 1020.5 |
| 20260905144503 | 42 | 119 | 1.0 | 5.0 | 0.00 | 0.15 | 0.01 | 99 | 1020.6 |
| 20260905143604 | 42 | 116 | 1.0 | 5.0 | 0.00 | 0.15 | 0.01 | 99 | 1020.3 |
| 20260905142703 | 42 | 117 | 3.0 | 5.0 | 0.00 | 0.15 | 0.01 | 99 | 1020.2 |
| 20260905142018 | 42 | 118 | 2.0 | 5.0 | 0.00 | 0.15 | 0.01 | 99 | 1020.2 |
| 20260905140903 | 41 | 117 | 2.0 | 4.0 | 0.00 | 0.15 | 0.01 | 99 | 1020.1 |
| 20260905140003 | 41 | 114 | 2.0 | 4.0 | 0.00 | 0.15 | 0.01 | 99 | 1019.9 |
| 20260905135405 | 41 | 113 | 2.0 | 4.0 | 0.00 | 0.15 | 0.01 | 99 | 1019.9 |
| 20260905134503 | 41 | 111 | 2.0 | 6.0 | 0.00 | 0.15 | 0.01 | 99 | 1019.9 |
| 20260905133603 | 41 | 112 | 2.0 | 5.0 | 0.00 | 0.15 | 0.01 | 99 | 1019.9 |
| 20260905132703 | 40 | 82 | 1.0 | 3.0 | 0.00 | 0.15 | 0.01 | 98 | 1019.8 |
| 20260905131803 | 41 | 109 | 1.0 | 6.0 | 0.00 | 0.15 | 0.01 | 98 | 1019.7 |
| 20260905130905 | 40 | 109 | 2.0 | 6.0 | 0.00 | 0.15 | 0.01 | 98 | 1019.9 |
| 20260905130003 | 40 | 104 | 1.0 | 5.0 | 0.00 | 0.15 | 0.01 | 98 | 1019.9 |
| 20260905125403 | 40 | 106 | 1.0 | 5.0 | 0.00 | 0.15 | 0.01 | 99 | 1019.5 |
| 20260905124503 | 40 | 62 | 1.0 | 4.0 | 0.00 | 0.15 | 0.01 | 98 | 1019.4 |
| 20260905123603 | 40 | 40 | 1.0 | 2.0 | 0.00 | 0.15 | 0.01 | 98 | 1019.5 |
| 20260905122703 | 40 | 76 | 0.0 | 2.0 | 0.00 | 0.15 | 0.00 | 98 | 1019.5 |
| 20260905121803 | 40 | 37 | 1.0 | 2.0 | 0.00 | 0.15 | 0.00 | 97 | 1019.6 |
| 20260905120905 | 41 | 22 | 1.0 | 2.0 | 0.00 | 0.15 | 0.00 | 97 | 1019.4 |
| 20260905120003 | 41 | 44 | 0.0 | 3.0 | 0.00 | 0.15 | 0.00 | 97 | 1019.3 |
| 20260905115403 | 42 | 85 | 1.0 | 4.0 | 0.00 | 0.15 | 0.00 | 98 | 1019.3 |
| 20260905114503 | 42 | 113 | 1.0 | 4.0 | 0.00 | 0.15 | 0.00 | 98 | 1019.4 |
| 20260905113818 | 42 | 114 | 1.0 | 4.0 | 0.00 | 0.15 | 0.00 | 98 | 1019.5 |
| 20260905112704 | 42 | 122 | 1.0 | 5.0 | 0.00 | 0.15 | 0.00 | 98 | 1019.5 |
| 20260905111803 | 42 | 105 | 1.0 | 7.0 | 0.00 | 0.15 | 0.00 | 98 | 1019.7 |
| 20260905110903 | 42 | 117 | 2.0 | 4.0 | 0.00 | 0.15 | 0.00 | 98 | 1019.5 |
| 20260905110003 | 42 | 118 | 1.0 | 4.0 | 0.00 | 0.15 | 0.00 | 98 | 1019.4 |
| 20260905105617 | 42 | 119 | 1.0 | 4.0 | 0.00 | 0.15 | 0.00 | 98 | 1019.7 |
| 20260905104718 | 42 | 125 | 1.0 | 4.0 | 0.00 | 0.15 | 0.00 | 98 | 1019.6 |
| 20260905103603 | 42 | 101 | 1.0 | 4.0 | 0.00 | 0.15 | 0.00 | 98 | 1019.4 |
| 20260905102919 | 42 | 107 | 1.0 | 4.0 | 0.00 | 0.15 | 0.00 | 98 | 1019.4 |
| 20260905101803 | 43 | 118 | 1.0 | 5.0 | 0.00 | 0.15 | 0.00 | 98 | 1019.7 |
| 20260905100905 | 42 | 98 | 1.0 | 5.0 | 0.00 | 0.15 | 0.00 | 98 | 1019.6 |
| 20260905100003 | 43 | 112 | 1.0 | 5.0 | 0.00 | 0.15 | 0.00 | 98 | 1019.4 |
| 20260905095403 | 43 | 105 | 1.0 | 5.0 | 0.00 | 0.15 | 0.00 | 98 | 1019.4 |
| 20260905094718 | 43 | 107 | 2.0 | 5.0 | 0.00 | 0.15 | 0.00 | 98 | 1019.3 |
| 20260905093603 | 43 | 112 | 2.0 | 6.0 | 0.00 | 0.15 | 0.00 | 98 | 1019.5 |
| 20260905092703 | 43 | 115 | 1.0 | 5.0 | 0.00 | 0.15 | 0.00 | 97 | 1019.4 |
| 20260905091803 | 44 | 121 | 2.0 | 4.0 | 0.00 | 0.15 | 0.00 | 98 | 1019.3 |
| 20260905090903 | 44 | 113 | 2.0 | 6.0 | 0.00 | 0.15 | 0.00 | 98 | 1019.4 |
| 20260905090003 | 44 | 113 | 2.0 | 6.0 | 0.00 | 0.15 | 0.00 | 98 | 1019.3 |
| 20260905085403 | 44 | 113 | 2.0 | 6.0 | 0.00 | 0.15 | 0.00 | 98 | 1019.0 |
| 20260905084503 | 44 | 104 | 1.0 | 5.0 | 0.00 | 0.15 | 0.00 | 98 | 1019.3 |
| 20260905083603 | 44 | 88 | 0.0 | 3.0 | 0.00 | 0.16 | 0.00 | 97 | 1018.8 |
| 20260905082705 | 44 | 43 | 0.0 | 3.0 | 0.00 | 0.16 | 0.00 | 97 | 1019.0 |
| 20260905082017 | 44 | 44 | 0.0 | 3.0 | 0.00 | 0.16 | 0.00 | 97 | 1018.9 |
| 20260905080903 | 44 | 81 | 1.0 | 4.0 | 0.00 | 0.16 | 0.00 | 98 | 1018.9 |
| 20260905080004 | 45 | 116 | 1.0 | 6.0 | 0.00 | 0.17 | 0.00 | 97 | 1018.8 |
| 20260905075403 | 45 | 117 | 1.0 | 5.0 | 0.00 | 0.17 | 0.00 | 97 | 1018.8 |
| 20260905074503 | 45 | 110 | 2.0 | 5.0 | 0.00 | 0.17 | 0.00 | 97 | 1018.7 |
| 20260905073603 | 45 | 122 | 2.0 | 4.0 | 0.00 | 0.17 | 0.00 | 97 | 1018.7 |
| 20260905072703 | 46 | 110 | 2.0 | 5.0 | 0.00 | 0.17 | 0.00 | 97 | 1018.7 |
| 20260905071803 | 46 | 93 | 1.0 | 6.0 | 0.00 | 0.17 | 0.00 | 97 | 1018.8 |
| 20260905070903 | 46 | 118 | 2.0 | 6.0 | 0.00 | 0.17 | 0.00 | 97 | 1018.7 |
| 20260905070003 | 46 | 111 | 2.0 | 6.0 | 0.00 | 0.17 | 0.00 | 98 | 1018.5 |
| 20260905065403 | 46 | 113 | 3.0 | 7.0 | 0.00 | 0.17 | 0.17 | 98 | 1018.6 |